Hawarden, United Kingdom

10:44 AM BST on September 26, 2016 (GMT +0100)
Hawarden

Weather History for EGNR - December, 2012

Change the Weather History Date:

Saturday, December 15, 2012

  Actual Average (EGGP) Record (EGGP)
Temperature  
Mean Temperature 45 °F -  
Max Temperature 49 °F 44 °F 55 °F (2013)
Min Temperature 39 °F 35 °F 28 °F (2001)
Degree Days  
Heating Degree Days 20    
Moisture  
Dew Point 44 °F    
Average Humidity 93    
Maximum Humidity 100    
Minimum Humidity 87    
Precipitation  
Precipitation 0.04 in - - ()
Sea Level Pressure  
Sea Level Pressure 29.14 in    
Wind  
Wind Speed 9 mph ()    
Max Wind Speed 15 mph    
Max Gust Speed -    
Visibility 7.8 miles    
Events Rain    
Averages and records for this station are not official NWS values.
T = Trace of Precipitation, MM = Missing Value Source: Averaged Metar Reports

Daily Weather History Graph

Daily Weather History Graph

Search for Another Location

Airport or City:

Trip Planner

Search our weather history database for the weather conditions in past years. The results will help you decide how hot, cold, wet, or windy it might be!

Date:

Astronomy

Dec. 15, 2012 Rise Set
Actual Time 8:20 AM GMT 3:54 PM GMT
Civil Twilight 7:37 AM GMT 4:36 PM GMT
Nautical Twilight 6:52 AM GMT 5:21 PM GMT
Astronomical Twilight 6:10 AM GMT 6:04 PM GMT
Moon 9:48 AM GMT (12/15) 6:57 PM GMT (12/15)
Length of Visible Light 8h 58m
Length of Day
7h 33m
Waxing Crescent, 7% of the Moon is Illuminated
Dec 15
Waxing Crescent
Dec 20
First Quarter
Dec 28
Full
Jan 5
Last Quarter
Jan 11
New

Hourly Weather History & Observations

Time (GMT) Temp. Windchill Dew Point Humidity Pressure Visibility Wind Dir Wind Speed Gust Speed Precip Events Conditions
2:50 AM 41 °F - 41 °F 100% 28.97 in 19 mi SSE 9.2 mph - -   Partly Cloudy
5:50 AM 43 °F - 43 °F 100% 29.02 in 31 mi SE 9.2 mph - - Rain Rain
8:20 AM 44.6 °F 39.2 °F 42.8 °F 93% 29.06 in 6.2 mi South 10.4 mph - N/A Rain Light Rain
8:50 AM 44 °F - 44 °F 100% 29.08 in 31 mi SSE 12.7 mph - - Rain Rain
8:50 AM 44.6 °F 38.1 °F 41.0 °F 87% 29.06 in 6.2 mi South 13.8 mph - N/A Rain Light Rain
9:20 AM 44.6 °F 38.8 °F 42.8 °F 93% 29.09 in 6.2 mi South 11.5 mph - N/A   Scattered Clouds
9:50 AM 44.6 °F 38.4 °F 42.8 °F 93% 29.09 in 6.2 mi South 12.7 mph - N/A   Scattered Clouds
10:20 AM 46.4 °F 41.5 °F 44.6 °F 93% 29.09 in 6.2 mi SSW 10.4 mph - N/A Rain Light Rain Showers
10:50 AM 46.4 °F 40.7 °F 42.8 °F 87% 29.12 in 6.2 mi SSW 12.7 mph - N/A   Scattered Clouds
11:20 AM 48.2 °F - 44.6 °F 87% 29.12 in 6.2 mi SSW 9.2 mph - N/A Rain Light Rain Showers
11:50 AM 47 °F - 47 °F 98% 29.14 in 3 mi South 9.2 mph - - Rain Rain
11:50 AM 48.2 °F - 46.4 °F 93% 29.12 in 6.2 mi South 11.5 mph - N/A   Mostly Cloudy
12:20 PM 48.2 °F - 46.4 °F 93% 29.12 in 6.2 mi SW 11.5 mph - N/A   Scattered Clouds
12:50 PM 48.2 °F - 44.6 °F 87% 29.12 in 6.2 mi SW 10.4 mph - N/A   Scattered Clouds
1:20 PM 50.0 °F - 46.4 °F 87% 29.15 in 6.2 mi SW 12.7 mph - N/A   Scattered Clouds
1:50 PM 50.0 °F - 46.4 °F 87% 29.15 in 6.2 mi SW 9.2 mph - N/A   Scattered Clouds
2:20 PM 48.2 °F - 44.6 °F 87% 29.15 in 6.2 mi SW 15.0 mph - N/A   Scattered Clouds
2:50 PM 46 °F - 46 °F 100% 29.18 in 19 mi SW 11.5 mph - - Rain Light Rain Showers
2:50 PM 48.2 °F - 44.6 °F 87% 29.18 in 6.2 mi WSW 13.8 mph - N/A   Scattered Clouds
3:20 PM 46.4 °F 43.5 °F 42.8 °F 87% 29.18 in 6.2 mi SSW 5.8 mph - N/A   Partly Cloudy
3:50 PM 46.4 °F 43.5 °F 42.8 °F 87% 29.21 in 6.2 mi South 5.8 mph - N/A Rain Light Rain Showers
5:50 PM 43 °F - 43 °F 98% 29.25 in 9 mi SE 8.1 mph - - Rain Rain
8:50 PM 43 °F - 43 °F 98% 29.30 in 12 mi South 10.4 mph - - Rain Light Rain Showers
11:50 PM 39 °F - 39 °F 100% 29.35 in 11 mi SSE 6.9 mph - -   Scattered Clouds